Time,TemperatureF,DewpointF,PressureIn,WindDirection,WindDirectionDegrees,WindSpeedMPH,WindSpeedGustMPH,Humidity,HourlyPrecipIn,Conditions,Clouds,dailyrainin,SoftwareType,DateUTC
2013-02-17 00:16:00,38.1,31.2,30.25,WSW,253,0.0,1.0,76,0.00,,,0.00,WUHU216DAVISVP2,2013-02-17 08:16:00,
2013-02-17 00:21:00,38.2,31.3,30.25,West,269,0.3,2.0,76,0.00,,,0.00,WUHU216DAVISVP2,2013-02-17 08:21:00,
2013-02-17 00:26:00,38.2,31.3,30.25,WSW,252,1.0,3.0,76,0.00,,,0.00,WUHU216DAVISVP2,2013-02-17 08:26:00,
2013-02-17 00:31:00,38.1,31.2,30.25,West,269,0.0,3.0,76,0.00,,,0.00,WUHU216DAVISVP2,2013-02-17 08:31:00,
2013-02-17 00:36:00,38.3,31.4,30.25,WSW,257,0.1,3.0,76,0.00,,,0.00,WUHU216DAVISVP2,2013-02-17 08:36:00,
2013-02-17 00:41:00,38.3,31.4,30.25,West,260,0.1,3.0,76,0.00,,,0.00,WUHU216DAVISVP2,2013-02-17 08:41:00,
2013-02-17 00:46:00,38.1,31.2,30.25,WNW,292,1.0,2.0,76,0.00,,,0.00,WUHU216DAVISVP2,2013-02-17 08:46:00,
2013-02-17 00:51:00,38.0,31.5,30.25,West,271,1.0,2.0,77,0.00,,,0.00,WUHU216DAVISVP2,2013-02-17 08:51:00,
2013-02-17 00:56:00,37.9,31.4,30.25,West,266,0.1,2.0,77,0.00,,,0.00,WUHU216DAVISVP2,2013-02-17 08:56:00,
2013-02-17 01:01:00,37.8,31.3,30.25,West,267,0.1,2.0,77,0.00,,,0.00,WUHU216DAVISVP2,2013-02-17 09:01:00,
2013-02-17 01:06:00,37.9,31.1,30.25,WSW,256,1.4,3.0,76,0.00,,,0.00,WUHU216DAVISVP2,2013-02-17 09:06:00,
2013-02-17 01:11:00,37.9,31.1,30.25,WSW,251,0.0,3.0,76,0.00,,,0.00,WUHU216DAVISVP2,2013-02-17 09:11:00,
2013-02-17 01:16:00,37.4,30.9,30.25,WSW,249,0.1,3.0,77,0.00,,,0.00,WUHU216DAVISVP2,2013-02-17 09:16:00,
2013-02-17 01:21:00,37.2,30.7,30.25,WSW,243,0.5,3.0,77,0.00,,,0.00,WUHU216DAVISVP2,2013-02-17 09:21:00,
2013-02-17 01:26:00,36.9,30.7,30.24,WSW,238,0.5,2.0,78,0.00,,,0.00,WUHU216DAVISVP2,2013-02-17 09:26:00,
2013-02-17 01:31:00,36.8,30.6,30.24,WSW,239,0.2,2.0,78,0.00,,,0.00,WUHU216DAVISVP2,2013-02-17 09:31:00,
2013-02-17 01:36:00,36.3,30.4,30.24,SW,226,0.4,2.0,79,0.00,,,0.00,WUHU216DAVISVP2,2013-02-17 09:36:00,
2013-02-17 01:41:00,35.9,30.3,30.24,SW,227,0.1,1.0,80,0.00,,,0.00,WUHU216DAVISVP2,2013-02-17 09:41:00,
2013-02-17 01:46:00,35.4,30.1,30.24,SW,224,0.1,1.0,81,0.00,,,0.00,WUHU216DAVISVP2,2013-02-17 09:46:00,
2013-02-17 01:51:00,35.2,30.0,30.24,SW,226,0.2,1.0,81,0.00,,,0.00,WUHU216DAVISVP2,2013-02-17 09:51:00,
2013-02-17 01:56:00,35.1,29.9,30.24,SW,219,0.0,1.0,81,0.00,,,0.00,WUHU216DAVISVP2,2013-02-17 09:56:00,
2013-02-17 02:01:00,34.8,29.9,30.24,SW,220,0.0,1.0,82,0.00,,,0.00,WUHU216DAVISVP2,2013-02-17 10:01:00,
2013-02-17 02:06:00,34.5,29.6,30.24,SW,220,0.0,1.0,82,0.00,,,0.00,WUHU216DAVISVP2,2013-02-17 10:06:00,
2013-02-17 02:11:00,34.4,29.8,30.24,WSW,243,0.0,2.0,83,0.00,,,0.00,WUHU216DAVISVP2,2013-02-17 10:11:00,
2013-02-17 02:16:00,34.4,29.8,30.24,West,274,0.2,2.0,83,0.00,,,0.00,WUHU216DAVISVP2,2013-02-17 10:16:00,
2013-02-17 02:21:00,34.6,29.7,30.24,WSW,252,0.1,2.0,82,0.00,,,0.00,WUHU216DAVISVP2,2013-02-17 10:21:00,
2013-02-17 02:26:00,35.2,30.0,30.24,SW,220,0.3,2.0,81,0.00,,,0.00,WUHU216DAVISVP2,2013-02-17 10:26:00,
2013-02-17 02:31:00,35.5,30.0,30.24,WSW,248,0.1,1.0,80,0.00,,,0.00,WUHU216DAVISVP2,2013-02-17 10:31:00,
2013-02-17 02:36:00,35.4,29.9,30.24,WSW,252,0.0,1.0,80,0.00,,,0.00,WUHU216DAVISVP2,2013-02-17 10:36:00,
2013-02-17 02:41:00,35.3,30.1,30.24,West,266,0.1,1.0,81,0.00,,,0.00,WUHU216DAVISVP2,2013-02-17 10:41:00,
2013-02-17 02:46:00,35.2,29.7,30.25,WNW,291,1.0,1.0,80,0.00,,,0.00,WUHU216DAVISVP2,2013-02-17 10:46:00,
2013-02-17 02:51:00,35.6,29.7,30.25,West,274,2.0,4.0,79,0.00,,,0.00,WUHU216DAVISVP2,2013-02-17 10:51:00,
2013-02-17 02:56:00,35.8,29.9,30.24,West,266,0.0,5.0,79,0.00,,,0.00,WUHU216DAVISVP2,2013-02-17 10:56:00,
2013-02-17 03:01:00,35.8,29.6,30.24,West,273,0.1,5.0,78,0.00,,,0.00,WUHU216DAVISVP2,2013-02-17 11:01:00,
2013-02-17 03:06:00,35.8,29.6,30.24,West,270,1.0,5.0,78,0.00,,,0.00,WUHU216DAVISVP2,2013-02-17 11:06:00,
2013-02-17 03:11:00,36.0,29.8,30.24,WSW,245,0.2,3.0,78,0.00,,,0.00,WUHU216DAVISVP2,2013-02-17 11:11:00,
2013-02-17 03:16:00,35.7,29.5,30.24,SW,236,0.0,3.0,78,0.00,,,0.00,WUHU216DAVISVP2,2013-02-17 11:16:00,
2013-02-17 03:21:00,35.4,29.6,30.24,WSW,245,0.1,3.0,79,0.00,,,0.00,WUHU216DAVISVP2,2013-02-17 11:21:00,
2013-02-17 03:26:00,35.2,29.6,30.24,SW,233,0.5,3.0,80,0.00,,,0.00,WUHU216DAVISVP2,2013-02-17 11:26:00,
2013-02-17 03:31:00,34.9,29.7,30.24,SW,234,0.3,3.0,81,0.00,,,0.00,WUHU216DAVISVP2,2013-02-17 11:31:00,
2013-02-17 03:36:00,34.6,29.7,30.24,West,259,1.0,3.0,82,0.00,,,0.00,WUHU216DAVISVP2,2013-02-17 11:36:00,
2013-02-17 03:41:00,34.7,29.5,30.24,SW,230,0.1,3.0,81,0.00,,,0.00,WUHU216DAVISVP2,2013-02-17 11:41:00,
2013-02-17 03:46:00,34.3,29.4,30.24,SW,225,0.2,2.0,82,0.00,,,0.00,WUHU216DAVISVP2,2013-02-17 11:46:00,
2013-02-17 03:51:00,34.2,29.3,30.24,SW,229,0.0,2.0,82,0.00,,,0.00,WUHU216DAVISVP2,2013-02-17 11:51:00,
2013-02-17 03:56:00,34.3,29.4,30.24,SW,221,0.0,1.0,82,0.00,,,0.00,WUHU216DAVISVP2,2013-02-17 11:56:00,
2013-02-17 04:01:00,34.3,29.7,30.24,WSW,241,0.1,1.0,83,0.00,,,0.00,WUHU216DAVISVP2,2013-02-17 12:01:00,
2013-02-17 04:06:00,34.0,29.4,30.24,SW,226,0.0,1.0,83,0.00,,,0.00,WUHU216DAVISVP2,2013-02-17 12:06:00,
2013-02-17 04:11:00,33.9,29.3,30.24,SW,227,1.0,2.0,83,0.00,,,0.00,WUHU216DAVISVP2,2013-02-17 12:11:00,
2013-02-17 04:16:00,33.9,29.6,30.24,SW,224,0.0,2.0,84,0.00,,,0.00,WUHU216DAVISVP2,2013-02-17 12:16:00,
2013-02-17 04:21:00,34.0,29.4,30.24,WSW,238,0.1,2.0,83,0.00,,,0.00,WUHU216DAVISVP2,2013-02-17 12:21:00,
2013-02-17 04:26:00,34.3,29.7,30.24,SW,220,0.0,2.0,83,0.00,,,0.00,WUHU216DAVISVP2,2013-02-17 12:26:00,
2013-02-17 04:31:00,34.3,29.7,30.24,WSW,240,0.0,1.0,83,0.00,,,0.00,WUHU216DAVISVP2,2013-02-17 12:31:00,
2013-02-17 04:36:00,34.4,29.5,30.24,WSW,239,0.0,1.0,82,0.00,,,0.00,WUHU216DAVISVP2,2013-02-17 12:36:00,
2013-02-17 04:41:00,34.5,29.6,30.24,WSW,239,0.0,1.0,82,0.00,,,0.00,WUHU216DAVISVP2,2013-02-17 12:41:00,
2013-02-17 04:46:00,34.4,29.5,30.24,WSW,239,0.0,1.0,82,0.00,,,0.00,WUHU216DAVISVP2,2013-02-17 12:46:00,
2013-02-17 04:51:00,34.2,29.6,30.24,WSW,239,0.0,0.0,83,0.00,,,0.00,WUHU216DAVISVP2,2013-02-17 12:51:00,
2013-02-17 04:56:00,33.6,29.3,30.24,WSW,239,0.0,0.0,84,0.00,,,0.00,WUHU216DAVISVP2,2013-02-17 12:56:00,
2013-02-17 05:01:00,33.3,29.0,30.24,SE,143,0.1,1.0,84,0.00,,,0.00,WUHU216DAVISVP2,2013-02-17 13:01:00,
2013-02-17 05:06:00,33.0,29.0,30.24,SSE,159,0.0,1.0,85,0.00,,,0.00,WUHU216DAVISVP2,2013-02-17 13:06:00,
2013-02-17 05:12:00,32.5,28.8,30.24,SSE,160,0.0,1.0,86,0.00,,,0.00,WUHU216DAVISVP2,2013-02-17 13:12:00,
2013-02-17 05:17:00,32.4,28.9,30.24,SSE,160,0.0,1.0,87,0.00,,,0.00,WUHU216DAVISVP2,2013-02-17 13:17:00,
2013-02-17 05:22:00,32.4,28.4,30.24,SSE,162,0.0,1.0,85,0.00,,,0.00,WUHU216DAVISVP2,2013-02-17 13:22:00,
2013-02-17 05:27:00,32.0,28.0,30.24,SSE,162,0.0,0.0,85,0.00,,,0.00,WUHU216DAVISVP2,2013-02-17 13:27:00,
2013-02-17 05:32:00,31.3,27.0,30.24,SE,140,0.0,1.0,84,0.00,,,0.00,WUHU216DAVISVP2,2013-02-17 13:32:00,
2013-02-17 05:37:00,30.7,26.7,30.24,SSE,153,0.0,1.0,85,0.00,,,0.00,WUHU216DAVISVP2,2013-02-17 13:37:00,
2013-02-17 05:42:00,30.6,27.2,30.24,SSW,212,0.0,1.0,87,0.00,,,0.00,WUHU216DAVISVP2,2013-02-17 13:42:00,
2013-02-17 05:47:00,30.8,27.1,30.24,WSW,241,0.1,1.0,86,0.00,,,0.00,WUHU216DAVISVP2,2013-02-17 13:47:00,
2013-02-17 05:52:00,30.6,26.9,30.24,SW,221,0.0,1.0,86,0.00,,,0.00,WUHU216DAVISVP2,2013-02-17 13:52:00,
2013-02-17 05:57:00,30.2,26.5,30.24,SW,221,0.0,1.0,86,0.00,,,0.00,WUHU216DAVISVP2,2013-02-17 13:57:00,
2013-02-17 06:02:00,29.7,26.3,30.24,SW,221,0.0,1.0,87,0.00,,,0.00,WUHU216DAVISVP2,2013-02-17 14:02:00,
2013-02-17 06:07:00,29.3,25.9,30.24,SSW,208,0.0,1.0,87,0.00,,,0.00,WUHU216DAVISVP2,2013-02-17 14:07:00,
2013-02-17 06:12:00,28.8,25.4,30.24,SE,140,0.0,1.0,87,0.00,,,0.00,WUHU216DAVISVP2,2013-02-17 14:12:00,
2013-02-17 06:17:00,28.6,25.5,30.24,SE,140,0.0,1.0,88,0.00,,,0.00,WUHU216DAVISVP2,2013-02-17 14:17:00,
2013-02-17 06:22:00,28.5,25.7,30.25,SSE,147,0.0,1.0,89,0.00,,,0.00,WUHU216DAVISVP2,2013-02-17 14:22:00,
2013-02-17 06:27:00,28.5,25.6,30.24,WSW,238,1.0,1.0,89,0.00,,,0.00,WUHU216DAVISVP2,2013-02-17 14:27:00,
2013-02-17 06:32:00,28.5,25.6,30.25,SW,224,0.0,2.0,89,0.00,,,0.00,WUHU216DAVISVP2,2013-02-17 14:32:00,
2013-02-17 06:37:00,28.6,25.7,30.24,SW,231,1.0,2.0,89,0.00,,,0.00,WUHU216DAVISVP2,2013-02-17 14:37:00,
2013-02-17 06:42:00,28.8,25.7,30.24,SSE,165,0.1,2.0,88,0.00,,,0.00,WUHU216DAVISVP2,2013-02-17 14:42:00,
2013-02-17 06:47:00,28.8,25.9,30.25,SSE,166,0.0,2.0,89,0.00,,,0.00,WUHU216DAVISVP2,2013-02-17 14:47:00,
2013-02-17 06:52:00,28.5,25.4,30.24,SSE,166,0.0,1.0,88,0.00,,,0.00,WUHU216DAVISVP2,2013-02-17 14:52:00,
2013-02-17 06:57:00,28.1,25.3,30.24,SSE,166,0.0,1.0,89,0.00,,,0.00,WUHU216DAVISVP2,2013-02-17 14:57:00,
2013-02-17 07:02:00,27.9,25.0,30.23,SSE,150,0.0,0.0,89,0.00,,,0.00,WUHU216DAVISVP2,2013-02-17 15:02:00,
2013-02-17 07:07:00,27.9,25.3,30.23,SW,226,0.0,1.0,90,0.00,,,0.00,WUHU216DAVISVP2,2013-02-17 15:07:00,
2013-02-17 07:12:00,28.0,25.4,30.24,SW,226,0.1,1.0,90,0.00,,,0.00,WUHU216DAVISVP2,2013-02-17 15:12:00,
2013-02-17 07:18:00,27.8,24.9,30.24,SE,145,0.0,1.0,89,0.00,,,0.00,WUHU216DAVISVP2,2013-02-17 15:18:00,
2013-02-17 07:23:00,27.5,24.9,30.24,SSE,150,0.0,1.0,90,0.00,,,0.00,WUHU216DAVISVP2,2013-02-17 15:23:00,
2013-02-17 07:28:00,27.6,25.0,30.24,SSE,153,0.0,1.0,90,0.00,,,0.00,WUHU216DAVISVP2,2013-02-17 15:28:00,
2013-02-17 07:33:00,27.9,25.3,30.25,SSW,194,0.0,1.0,90,0.00,,,0.00,WUHU216DAVISVP2,2013-02-17 15:33:00,
2013-02-17 07:38:00,28.0,25.7,30.24,SSW,193,0.0,0.0,91,0.00,,,0.00,WUHU216DAVISVP2,2013-02-17 15:38:00,
2013-02-17 07:43:00,28.2,25.9,30.24,WSW,237,0.0,0.0,91,0.00,,,0.00,WUHU216DAVISVP2,2013-02-17 15:43:00,
2013-02-17 07:48:00,28.8,26.2,30.24,SW,236,0.0,1.0,90,0.00,,,0.00,WUHU216DAVISVP2,2013-02-17 15:48:00,
2013-02-17 07:53:00,29.1,25.9,30.25,SSE,149,0.0,1.0,88,0.00,,,0.00,WUHU216DAVISVP2,2013-02-17 15:53:00,
2013-02-17 07:58:00,29.8,26.9,30.25,SSE,149,0.0,1.0,89,0.00,,,0.00,WUHU216DAVISVP2,2013-02-17 15:58:00,
2013-02-17 08:03:00,30.4,27.5,30.25,ESE,114,0.0,1.0,89,0.00,,,0.00,WUHU216DAVISVP2,2013-02-17 16:03:00,
2013-02-17 08:08:00,31.4,27.9,30.25,East,99,0.0,1.0,87,0.00,,,0.00,WUHU216DAVISVP2,2013-02-17 16:08:00,
2013-02-17 08:13:00,32.0,28.0,30.25,East,88,0.4,3.0,85,0.00,,,0.00,WUHU216DAVISVP2,2013-02-17 16:13:00,
2013-02-17 08:18:00,32.9,28.6,30.25,SE,141,0.3,3.0,84,0.00,,,0.00,WUHU216DAVISVP2,2013-02-17 16:18:00,
2013-02-17 08:23:00,33.7,29.1,30.25,East,96,1.0,3.0,83,0.00,,,0.00,WUHU216DAVISVP2,2013-02-17 16:23:00,
2013-02-17 08:28:00,34.0,29.4,30.25,East,101,1.0,3.0,83,0.00,,,0.00,WUHU216DAVISVP2,2013-02-17 16:28:00,
2013-02-17 08:33:00,34.4,29.5,30.25,East,89,2.0,3.0,82,0.00,,,0.00,WUHU216DAVISVP2,2013-02-17 16:33:00,
2013-02-17 08:38:00,35.0,29.8,30.25,East,90,1.8,3.0,81,0.00,,,0.00,WUHU216DAVISVP2,2013-02-17 16:38:00,
2013-02-17 08:43:00,35.7,29.8,30.24,ESE,103,2.0,3.0,79,0.00,,,0.00,WUHU216DAVISVP2,2013-02-17 16:43:00,
2013-02-17 08:48:00,36.1,30.2,30.24,East,86,2.0,3.0,79,0.00,,,0.00,WUHU216DAVISVP2,2013-02-17 16:48:00,
2013-02-17 08:53:00,36.4,29.6,30.24,East,93,2.0,4.0,76,0.00,,,0.00,WUHU216DAVISVP2,2013-02-17 16:53:00,
2013-02-17 08:58:00,36.9,29.7,30.23,East,85,2.5,4.0,75,0.00,,,0.00,WUHU216DAVISVP2,2013-02-17 16:58:00,
2013-02-17 09:03:00,37.3,30.4,30.24,East,88,1.1,4.0,76,0.00,,,0.00,WUHU216DAVISVP2,2013-02-17 17:03:00,
2013-02-17 09:08:00,37.1,30.2,30.24,NE,38,0.7,4.0,76,0.00,,,0.00,WUHU216DAVISVP2,2013-02-17 17:08:00,
2013-02-17 09:13:00,37.1,29.9,30.24,ESE,108,3.0,6.0,75,0.00,,,0.00,WUHU216DAVISVP2,2013-02-17 17:13:00,
2013-02-17 09:18:00,37.1,30.3,30.24,ENE,57,1.1,6.0,76,0.00,,,0.00,WUHU216DAVISVP2,2013-02-17 17:18:00,
2013-02-17 09:23:00,37.2,30.4,30.24,East,97,4.0,6.0,76,0.00,,,0.00,WUHU216DAVISVP2,2013-02-17 17:23:00,
2013-02-17 09:28:00,37.2,30.7,30.24,ESE,123,1.3,6.0,77,0.00,,,0.00,WUHU216DAVISVP2,2013-02-17 17:28:00,
2013-02-17 09:33:00,37.8,30.6,30.24,ESE,122,0.9,4.0,75,0.00,,,0.00,WUHU216DAVISVP2,2013-02-17 17:33:00,
2013-02-17 09:38:00,38.0,30.4,30.23,ENE,78,2.0,4.0,74,0.00,,,0.00,WUHU216DAVISVP2,2013-02-17 17:38:00,
2013-02-17 09:43:00,38.3,30.5,30.23,ESE,105,3.0,4.0,73,0.00,,,0.00,WUHU216DAVISVP2,2013-02-17 17:43:00,
2013-02-17 09:48:00,38.1,30.3,30.23,ENE,72,1.4,4.0,73,0.00,,,0.00,WUHU216DAVISVP2,2013-02-17 17:48:00,
2013-02-17 09:53:00,38.3,30.5,30.23,East,83,3.0,4.0,73,0.00,,,0.00,WUHU216DAVISVP2,2013-02-17 17:53:00,
2013-02-17 09:58:00,38.8,30.3,30.23,East,93,1.1,4.0,71,0.00,,,0.00,WUHU216DAVISVP2,2013-02-17 17:58:00,
2013-02-17 10:03:00,39.0,30.1,30.23,East,101,2.0,4.0,70,0.00,,,0.00,WUHU216DAVISVP2,2013-02-17 18:03:00,
2013-02-17 10:08:00,39.3,30.4,30.23,ESE,112,1.0,4.0,70,0.00,,,0.00,WUHU216DAVISVP2,2013-02-17 18:08:00,
2013-02-17 10:13:00,39.9,30.3,30.23,NE,44,0.3,4.0,68,0.00,,,0.00,WUHU216DAVISVP2,2013-02-17 18:13:00,
2013-02-17 10:18:00,40.4,30.8,30.23,NE,39,1.0,4.0,68,0.00,,,0.00,WUHU216DAVISVP2,2013-02-17 18:18:00,
2013-02-17 10:23:00,40.3,29.9,30.22,NE,45,0.3,4.0,66,0.00,,,0.00,WUHU216DAVISVP2,2013-02-17 18:23:00,
2013-02-17 10:28:00,40.4,30.4,30.22,NW,312,0.0,4.0,67,0.00,,,0.00,WUHU216DAVISVP2,2013-02-17 18:28:00,
2013-02-17 10:33:00,40.9,30.5,30.22,NNW,341,2.1,4.0,66,0.00,,,0.00,WUHU216DAVISVP2,2013-02-17 18:33:00,
2013-02-17 10:38:00,41.1,29.5,30.22,North,359,2.0,4.0,63,0.00,,,0.00,WUHU216DAVISVP2,2013-02-17 18:38:00,
2013-02-17 10:43:00,41.2,29.9,30.22,SW,236,0.3,4.0,64,0.00,,,0.00,WUHU216DAVISVP2,2013-02-17 18:43:00,
2013-02-17 10:48:00,41.6,29.5,30.22,North,354,1.0,4.0,62,0.00,,,0.00,WUHU216DAVISVP2,2013-02-17 18:48:00,
2013-02-17 10:53:00,42.0,29.1,30.21,NNW,342,2.0,4.0,60,0.00,,,0.00,WUHU216DAVISVP2,2013-02-17 18:53:00,
2013-02-17 10:58:00,42.4,29.9,30.21,NW,311,1.0,4.0,61,0.00,,,0.00,WUHU216DAVISVP2,2013-02-17 18:58:00,
2013-02-17 11:03:00,42.4,28.7,30.21,WNW,298,1.5,4.0,58,0.00,,,0.00,WUHU216DAVISVP2,2013-02-17 19:03:00,
2013-02-17 11:08:00,42.4,29.6,30.21,WNW,303,2.0,4.0,60,0.00,,,0.00,WUHU216DAVISVP2,2013-02-17 19:08:00,
2013-02-17 11:13:00,42.3,30.3,30.21,NNW,333,2.0,5.0,62,0.00,,,0.00,WUHU216DAVISVP2,2013-02-17 19:13:00,
2013-02-17 11:18:00,42.6,30.2,30.21,NNE,23,2.0,5.0,61,0.00,,,0.00,WUHU216DAVISVP2,2013-02-17 19:18:00,
2013-02-17 11:23:00,42.5,29.7,30.21,NNW,335,2.9,7.0,60,0.00,,,0.00,WUHU216DAVISVP2,2013-02-17 19:23:00,
2013-02-17 11:28:00,42.5,30.0,30.21,NNW,348,2.2,7.0,61,0.00,,,0.00,WUHU216DAVISVP2,2013-02-17 19:28:00,
2013-02-17 11:33:00,42.7,30.7,30.20,WNW,302,1.3,7.0,62,0.00,,,0.00,WUHU216DAVISVP2,2013-02-17 19:33:00,
2013-02-17 11:38:00,42.9,30.9,30.20,NNW,348,5.0,7.0,62,0.00,,,0.00,WUHU216DAVISVP2,2013-02-17 19:38:00,
2013-02-17 11:43:00,42.9,28.7,30.19,West,278,1.0,5.0,57,0.00,,,0.00,WUHU216DAVISVP2,2013-02-17 19:43:00,
2013-02-17 11:48:00,42.8,29.1,30.19,North,354,1.0,5.0,58,0.00,,,0.00,WUHU216DAVISVP2,2013-02-17 19:48:00,
2013-02-17 11:53:00,43.4,29.7,30.19,East,93,0.1,5.0,58,0.00,,,0.00,WUHU216DAVISVP2,2013-02-17 19:53:00,
2013-02-17 11:58:00,44.0,29.8,30.18,WNW,286,0.9,4.0,57,0.00,,,0.00,WUHU216DAVISVP2,2013-02-17 19:58:00,
2013-02-17 12:03:00,44.3,30.1,30.18,WNW,283,0.7,4.0,57,0.00,,,0.00,WUHU216DAVISVP2,2013-02-17 20:03:00,
2013-02-17 12:09:00,43.6,30.3,30.17,NNW,341,1.5,5.0,59,0.00,,,0.00,WUHU216DAVISVP2,2013-02-17 20:09:00,
2013-02-17 12:14:00,44.2,30.4,30.17,NE,39,3.0,5.0,58,0.00,,,0.00,WUHU216DAVISVP2,2013-02-17 20:14:00,
2013-02-17 12:19:00,44.3,30.9,30.17,North,0,1.2,6.0,59,0.00,,,0.00,WUHU216DAVISVP2,2013-02-17 20:19:00,
2013-02-17 12:24:00,44.4,31.0,30.16,WNW,285,0.8,7.0,59,0.00,,,0.00,WUHU216DAVISVP2,2013-02-17 20:24:00,
2013-02-17 12:29:00,44.7,30.9,30.16,North,359,2.5,7.0,58,0.00,,,0.00,WUHU216DAVISVP2,2013-02-17 20:29:00,
2013-02-17 12:34:00,44.6,30.4,30.16,NNE,27,1.5,7.0,57,0.00,,,0.00,WUHU216DAVISVP2,2013-02-17 20:34:00,
2013-02-17 12:39:00,45.0,30.7,30.16,WNW,290,4.0,6.0,57,0.00,,,0.00,WUHU216DAVISVP2,2013-02-17 20:39:00,
2013-02-17 12:44:00,44.9,29.7,30.16,North,354,2.1,6.0,55,0.00,,,0.00,WUHU216DAVISVP2,2013-02-17 20:44:00,
2013-02-17 12:49:00,44.9,29.7,30.15,WNW,293,2.0,7.0,55,0.00,,,0.00,WUHU216DAVISVP2,2013-02-17 20:49:00,
2013-02-17 12:54:00,45.1,29.9,30.15,North,2,1.4,7.0,55,0.00,,,0.00,WUHU216DAVISVP2,2013-02-17 20:54:00,
2013-02-17 12:59:00,45.3,30.6,30.14,North,8,2.0,7.0,56,0.00,,,0.00,WUHU216DAVISVP2,2013-02-17 20:59:00,
2013-02-17 13:04:00,45.6,29.5,30.14,NNE,14,3.0,7.0,53,0.00,,,0.00,WUHU216DAVISVP2,2013-02-17 21:04:00,
2013-02-17 13:09:00,45.7,29.5,30.14,WNW,293,2.0,7.0,53,0.00,,,0.00,WUHU216DAVISVP2,2013-02-17 21:09:00,
2013-02-17 13:14:00,45.7,30.0,30.14,WNW,302,2.1,6.0,54,0.00,,,0.00,WUHU216DAVISVP2,2013-02-17 21:14:00,
2013-02-17 13:19:00,46.3,29.6,30.13,North,2,2.0,6.0,52,0.00,,,0.00,WUHU216DAVISVP2,2013-02-17 21:19:00,
2013-02-17 13:24:00,46.6,30.4,30.13,NNE,23,3.0,6.0,53,0.00,,,0.00,WUHU216DAVISVP2,2013-02-17 21:24:00,
2013-02-17 13:29:00,46.7,30.0,30.13,NW,307,2.0,6.0,52,0.00,,,0.00,WUHU216DAVISVP2,2013-02-17 21:29:00,
2013-02-17 13:34:00,46.8,30.6,30.13,WNW,293,6.0,8.0,53,0.00,,,0.00,WUHU216DAVISVP2,2013-02-17 21:34:00,
2013-02-17 13:39:00,46.6,29.9,30.13,WNW,292,5.0,8.0,52,0.00,,,0.00,WUHU216DAVISVP2,2013-02-17 21:39:00,
2013-02-17 13:44:00,46.6,29.4,30.13,WNW,287,4.0,8.0,51,0.00,,,0.00,WUHU216DAVISVP2,2013-02-17 21:44:00,
2013-02-17 13:49:00,46.4,29.7,30.13,WNW,291,3.8,9.0,52,0.00,,,0.00,WUHU216DAVISVP2,2013-02-17 21:49:00,
2013-02-17 13:54:00,46.5,29.8,30.13,WNW,287,3.0,9.0,52,0.00,,,0.00,WUHU216DAVISVP2,2013-02-17 21:54:00,
2013-02-17 14:00:00,46.8,30.1,30.12,West,274,4.0,10.0,52,0.00,,,0.00,WUHU216DAVISVP2,2013-02-17 22:00:00,
2013-02-17 14:05:00,46.9,30.2,30.12,WNW,292,3.1,10.0,52,0.00,,,0.00,WUHU216DAVISVP2,2013-02-17 22:05:00,
2013-02-17 14:10:00,46.7,30.0,30.12,WNW,296,4.0,10.0,52,0.00,,,0.00,WUHU216DAVISVP2,2013-02-17 22:10:00,
2013-02-17 14:15:00,46.7,30.5,30.12,North,356,5.0,10.0,53,0.00,,,0.00,WUHU216DAVISVP2,2013-02-17 22:15:00,
2013-02-17 14:20:00,46.9,30.2,30.12,NW,311,3.1,10.0,52,0.00,,,0.00,WUHU216DAVISVP2,2013-02-17 22:20:00,
2013-02-17 14:25:00,47.0,29.8,30.12,WNW,301,3.2,10.0,51,0.00,,,0.00,WUHU216DAVISVP2,2013-02-17 22:25:00,
2013-02-17 14:30:00,46.6,29.9,30.11,WNW,296,3.1,9.0,52,0.00,,,0.00,WUHU216DAVISVP2,2013-02-17 22:30:00,
2013-02-17 14:35:00,46.9,29.7,30.11,NW,316,3.3,10.0,51,0.00,,,0.00,WUHU216DAVISVP2,2013-02-17 22:35:00,
2013-02-17 14:40:00,46.8,29.6,30.11,WNW,303,2.1,10.0,51,0.00,,,0.00,WUHU216DAVISVP2,2013-02-17 22:40:00,
2013-02-17 14:45:00,47.0,30.3,30.11,WNW,282,3.0,10.0,52,0.00,,,0.00,WUHU216DAVISVP2,2013-02-17 22:45:00,
2013-02-17 14:50:00,47.0,30.3,30.11,NW,324,3.1,10.0,52,0.00,,,0.00,WUHU216DAVISVP2,2013-02-17 22:50:00,
2013-02-17 14:55:00,47.1,29.9,30.11,NNW,328,2.9,9.0,51,0.00,,,0.00,WUHU216DAVISVP2,2013-02-17 22:55:00,
2013-02-17 15:00:00,46.9,29.2,30.11,WNW,300,3.0,10.0,50,0.00,,,0.00,WUHU216DAVISVP2,2013-02-17 23:00:00,
2013-02-17 15:05:00,46.8,29.6,30.11,NNW,332,4.0,10.0,51,0.00,,,0.00,WUHU216DAVISVP2,2013-02-17 23:05:00,
2013-02-17 15:10:00,46.9,29.7,30.11,WNW,300,6.0,10.0,51,0.00,,,0.00,WUHU216DAVISVP2,2013-02-17 23:10:00,
2013-02-17 15:15:00,46.8,30.1,30.11,WNW,283,4.0,10.0,52,0.00,,,0.00,WUHU216DAVISVP2,2013-02-17 23:15:00,
2013-02-17 15:20:00,46.7,30.0,30.10,NNW,337,2.8,9.0,52,0.00,,,0.00,WUHU216DAVISVP2,2013-02-17 23:20:00,
2013-02-17 15:25:00,47.1,29.9,30.10,WNW,293,4.0,8.0,51,0.00,,,0.00,WUHU216DAVISVP2,2013-02-17 23:25:00,
2013-02-17 15:30:00,47.0,30.3,30.10,NW,316,1.9,8.0,52,0.00,,,0.00,WUHU216DAVISVP2,2013-02-17 23:30:00,
2013-02-17 15:35:00,46.9,30.2,30.10,North,359,5.0,9.0,52,0.00,,,0.00,WUHU216DAVISVP2,2013-02-17 23:35:00,
2013-02-17 15:40:00,46.9,29.7,30.10,North,1,4.0,9.0,51,0.00,,,0.00,WUHU216DAVISVP2,2013-02-17 23:40:00,
2013-02-17 15:45:00,47.1,29.9,30.10,WNW,293,5.0,9.0,51,0.00,,,0.00,WUHU216DAVISVP2,2013-02-17 23:45:00,
2013-02-17 15:51:00,47.1,29.9,30.10,WNW,291,3.0,9.0,51,0.00,,,0.00,WUHU216DAVISVP2,2013-02-17 23:51:00,
2013-02-17 15:56:00,47.1,29.4,30.10,WNW,293,7.0,7.0,50,0.00,,,0.00,WUHU216DAVISVP2,2013-02-17 23:56:00,
2013-02-17 16:01:00,46.9,28.7,30.09,WNW,300,6.0,8.0,49,0.00,,,0.00,WUHU216DAVISVP2,2013-02-18 00:01:00,
2013-02-17 16:06:00,47.0,28.3,30.09,WNW,293,4.0,8.0,48,0.00,,,0.00,WUHU216DAVISVP2,2013-02-18 00:06:00,
2013-02-17 16:11:00,47.1,28.9,30.09,NW,309,0.7,8.0,49,0.00,,,0.00,WUHU216DAVISVP2,2013-02-18 00:11:00,
2013-02-17 16:16:00,46.9,27.6,30.10,WNW,296,3.3,8.0,47,0.00,,,0.00,WUHU216DAVISVP2,2013-02-18 00:16:00,
2013-02-17 16:21:00,46.9,28.2,30.10,WNW,294,1.7,7.0,48,0.00,,,0.00,WUHU216DAVISVP2,2013-02-18 00:21:00,
2013-02-17 16:26:00,46.5,27.3,30.10,NW,319,1.6,7.0,47,0.00,,,0.00,WUHU216DAVISVP2,2013-02-18 00:26:00,
2013-02-17 16:31:00,46.2,27.5,30.10,NW,315,1.2,7.0,48,0.00,,,0.00,WUHU216DAVISVP2,2013-02-18 00:31:00,
2013-02-17 16:36:00,45.9,27.2,30.10,WNW,292,1.1,7.0,48,0.00,,,0.00,WUHU216DAVISVP2,2013-02-18 00:36:00,
2013-02-17 16:41:00,45.5,26.9,30.10,WNW,293,0.1,6.0,48,0.00,,,0.00,WUHU216DAVISVP2,2013-02-18 00:41:00,
2013-02-17 16:46:00,44.7,26.7,30.10,WSW,240,2.0,6.0,49,0.00,,,0.00,WUHU216DAVISVP2,2013-02-18 00:46:00,
2013-02-17 16:51:00,43.2,30.7,30.10,SW,227,1.0,3.0,61,0.00,,,0.00,WUHU216DAVISVP2,2013-02-18 00:51:00,
2013-02-17 16:56:00,42.3,30.3,30.10,WSW,244,0.0,3.0,62,0.00,,,0.00,WUHU216DAVISVP2,2013-02-18 00:56:00,
2013-02-17 17:01:00,41.8,30.2,30.10,West,259,3.0,3.0,63,0.00,,,0.00,WUHU216DAVISVP2,2013-02-18 01:01:00,
2013-02-17 17:06:00,41.7,30.5,30.10,SW,226,1.0,3.0,64,0.00,,,0.00,WUHU216DAVISVP2,2013-02-18 01:06:00,
2013-02-17 17:11:00,41.0,29.8,30.10,SW,233,0.1,3.0,64,0.00,,,0.00,WUHU216DAVISVP2,2013-02-18 01:11:00,
2013-02-17 17:16:00,40.6,30.1,30.10,WSW,245,0.3,3.0,66,0.00,,,0.00,WUHU216DAVISVP2,2013-02-18 01:16:00,
2013-02-17 17:21:00,40.3,29.5,30.10,SW,228,2.0,2.0,65,0.00,,,0.00,WUHU216DAVISVP2,2013-02-18 01:21:00,
2013-02-17 17:26:00,40.1,29.0,30.10,SW,214,1.0,2.0,64,0.00,,,0.00,WUHU216DAVISVP2,2013-02-18 01:26:00,
2013-02-17 17:31:00,39.8,28.3,30.09,SSW,203,0.1,2.0,63,0.00,,,0.00,WUHU216DAVISVP2,2013-02-18 01:31:00,
2013-02-17 17:36:00,39.8,28.6,30.10,SW,217,0.1,2.0,64,0.00,,,0.00,WUHU216DAVISVP2,2013-02-18 01:36:00,
2013-02-17 17:41:00,39.3,29.0,30.10,SSW,207,1.0,2.0,66,0.00,,,0.00,WUHU216DAVISVP2,2013-02-18 01:41:00,
2013-02-17 17:46:00,38.9,29.3,30.09,SW,224,0.3,1.0,68,0.00,,,0.00,WUHU216DAVISVP2,2013-02-18 01:46:00,
2013-02-17 17:51:00,38.6,29.7,30.09,SW,220,0.3,2.0,70,0.00,,,0.00,WUHU216DAVISVP2,2013-02-18 01:51:00,
2013-02-17 17:56:00,38.2,29.7,30.09,SSW,196,1.0,2.0,71,0.00,,,0.00,WUHU216DAVISVP2,2013-02-18 01:56:00,
2013-02-17 18:01:00,38.3,29.8,30.09,SSE,164,1.0,2.0,71,0.00,,,0.00,WUHU216DAVISVP2,2013-02-18 02:01:00,
2013-02-17 18:06:00,38.9,29.7,30.09,SW,225,1.0,2.0,69,0.00,,,0.00,WUHU216DAVISVP2,2013-02-18 02:06:00,
2013-02-17 18:11:00,39.0,29.8,30.09,SW,223,0.8,2.0,69,0.00,,,0.00,WUHU216DAVISVP2,2013-02-18 02:11:00,
2013-02-17 18:16:00,39.7,29.7,30.09,West,276,2.0,3.0,67,0.00,,,0.00,WUHU216DAVISVP2,2013-02-18 02:16:00,
2013-02-17 18:21:00,39.6,29.3,30.09,SW,221,0.0,3.0,66,0.00,,,0.00,WUHU216DAVISVP2,2013-02-18 02:21:00,
2013-02-17 18:26:00,39.2,29.6,30.09,SE,145,0.0,3.0,68,0.00,,,0.00,WUHU216DAVISVP2,2013-02-18 02:26:00,
2013-02-17 18:31:00,38.7,29.1,30.09,SE,143,0.1,3.0,68,0.00,,,0.00,WUHU216DAVISVP2,2013-02-18 02:31:00,
2013-02-17 18:36:00,38.6,28.7,30.09,SSE,152,0.3,2.0,67,0.00,,,0.00,WUHU216DAVISVP2,2013-02-18 02:36:00,
2013-02-17 18:41:00,38.6,29.0,30.09,SW,227,0.3,2.0,68,0.00,,,0.00,WUHU216DAVISVP2,2013-02-18 02:41:00,
2013-02-17 18:46:00,37.8,28.9,30.09,SW,224,0.1,2.0,70,0.00,,,0.00,WUHU216DAVISVP2,2013-02-18 02:46:00,
2013-02-17 18:51:00,37.4,28.9,30.09,WSW,238,0.0,2.0,71,0.00,,,0.00,WUHU216DAVISVP2,2013-02-18 02:51:00,
2013-02-17 18:56:00,37.7,29.2,30.09,SW,219,1.0,2.0,71,0.00,,,0.00,WUHU216DAVISVP2,2013-02-18 02:56:00,
2013-02-17 19:01:00,37.6,29.0,30.09,SW,215,0.7,2.0,71,0.00,,,0.00,WUHU216DAVISVP2,2013-02-18 03:01:00,
2013-02-17 19:07:00,37.6,29.1,30.09,SW,223,0.1,4.0,71,0.00,,,0.00,WUHU216DAVISVP2,2013-02-18 03:07:00,
2013-02-17 19:12:00,37.3,29.2,30.09,SSW,205,0.0,4.0,72,0.00,,,0.00,WUHU216DAVISVP2,2013-02-18 03:12:00,
2013-02-17 19:17:00,37.2,29.1,30.09,SSE,153,0.0,4.0,72,0.00,,,0.00,WUHU216DAVISVP2,2013-02-18 03:17:00,
2013-02-17 19:22:00,37.2,28.7,30.09,SW,226,0.0,2.0,71,0.00,,,0.00,WUHU216DAVISVP2,2013-02-18 03:22:00,
2013-02-17 19:27:00,37.3,29.2,30.09,SSE,151,0.0,1.0,72,0.00,,,0.00,WUHU216DAVISVP2,2013-02-18 03:27:00,
2013-02-17 19:32:00,37.1,29.0,30.09,SSE,160,0.0,0.0,72,0.00,,,0.00,WUHU216DAVISVP2,2013-02-18 03:32:00,
2013-02-17 19:37:00,37.2,29.1,30.08,SW,219,0.0,0.0,72,0.00,,,0.00,WUHU216DAVISVP2,2013-02-18 03:37:00,
2013-02-17 19:42:00,37.2,29.1,30.08,SE,137,0.0,0.0,72,0.00,,,0.00,WUHU216DAVISVP2,2013-02-18 03:42:00,
2013-02-17 19:47:00,36.9,28.8,30.08,SE,143,0.0,0.0,72,0.00,,,0.00,WUHU216DAVISVP2,2013-02-18 03:47:00,
2013-02-17 19:52:00,36.9,28.4,30.08,SSE,165,0.0,0.0,71,0.00,,,0.00,WUHU216DAVISVP2,2013-02-18 03:52:00,
2013-02-17 19:57:00,37.2,29.1,30.08,SE,143,0.0,1.0,72,0.00,,,0.00,WUHU216DAVISVP2,2013-02-18 03:57:00,
2013-02-17 20:02:00,37.2,28.7,30.08,SE,143,0.0,1.0,71,0.00,,,0.00,WUHU216DAVISVP2,2013-02-18 04:02:00,
2013-02-17 20:07:00,37.1,29.2,30.08,SSE,164,1.0,1.0,73,0.00,,,0.00,WUHU216DAVISVP2,2013-02-18 04:07:00,
2013-02-17 20:12:00,37.1,29.3,30.08,SSW,195,0.0,1.0,73,0.00,,,0.00,WUHU216DAVISVP2,2013-02-18 04:12:00,
2013-02-17 20:17:00,37.2,29.4,30.08,SSW,195,0.0,1.0,73,0.00,,,0.00,WUHU216DAVISVP2,2013-02-18 04:17:00,
2013-02-17 20:22:00,37.0,29.2,30.08,SE,145,0.2,1.0,73,0.00,,,0.00,WUHU216DAVISVP2,2013-02-18 04:22:00,
2013-02-17 20:27:00,37.0,29.2,30.07,SSE,149,0.1,1.0,73,0.00,,,0.00,WUHU216DAVISVP2,2013-02-18 04:27:00,
2013-02-17 20:32:00,37.0,29.2,30.07,SSE,152,1.0,1.0,73,0.00,,,0.00,WUHU216DAVISVP2,2013-02-18 04:32:00,
2013-02-17 20:37:00,37.2,29.3,30.07,SE,142,0.0,2.0,73,0.00,,,0.00,WUHU216DAVISVP2,2013-02-18 04:37:00,
2013-02-17 20:42:00,37.3,29.5,30.07,SSW,207,0.0,2.0,73,0.00,,,0.00,WUHU216DAVISVP2,2013-02-18 04:42:00,
2013-02-17 20:47:00,37.3,29.5,30.07,SW,221,0.0,2.0,73,0.00,,,0.00,WUHU216DAVISVP2,2013-02-18 04:47:00,
2013-02-17 20:53:00,37.5,29.7,30.08,SW,214,1.0,1.0,73,0.00,,,0.00,WUHU216DAVISVP2,2013-02-18 04:53:00,
2013-02-17 20:58:00,37.5,29.4,30.08,SW,232,0.1,2.0,72,0.00,,,0.00,WUHU216DAVISVP2,2013-02-18 04:58:00,
2013-02-17 21:00:00,37.5,29.4,30.08,SE,137,0.0,2.0,72,0.00,,,0.00,WUHU216DAVISVP2,2013-02-18 05:00:00,
2013-02-17 21:05:00,37.1,29.3,30.08,SW,225,0.0,2.0,73,0.00,,,0.00,WUHU216DAVISVP2,2013-02-18 05:05:00,
2013-02-17 21:10:00,36.3,28.9,30.08,SSE,150,0.0,2.0,74,0.00,,,0.00,WUHU216DAVISVP2,2013-02-18 05:10:00,
2013-02-17 21:15:00,36.2,28.8,30.08,SSW,210,0.0,1.0,74,0.00,,,0.00,WUHU216DAVISVP2,2013-02-18 05:15:00,
2013-02-17 21:20:00,36.7,29.6,30.08,SW,231,1.0,1.0,75,0.00,,,0.00,WUHU216DAVISVP2,2013-02-18 05:20:00,
2013-02-17 21:25:00,36.5,29.4,30.08,SW,223,0.0,2.0,75,0.00,,,0.00,WUHU216DAVISVP2,2013-02-18 05:25:00,
2013-02-17 21:30:00,36.7,29.2,30.08,WSW,247,0.9,2.0,74,0.00,,,0.00,WUHU216DAVISVP2,2013-02-18 05:30:00,
2013-02-17 21:35:00,36.5,29.0,30.08,SSE,153,0.0,2.0,74,0.00,,,0.00,WUHU216DAVISVP2,2013-02-18 05:35:00,
2013-02-17 21:40:00,36.4,28.9,30.08,SSE,148,0.0,2.0,74,0.00,,,0.00,WUHU216DAVISVP2,2013-02-18 05:40:00,
2013-02-17 21:45:00,36.3,28.8,30.08,SSE,150,0.0,2.0,74,0.00,,,0.00,WUHU216DAVISVP2,2013-02-18 05:45:00,
2013-02-17 21:50:00,36.1,28.9,30.08,SSE,163,0.0,1.0,75,0.00,,,0.00,WUHU216DAVISVP2,2013-02-18 05:50:00,
2013-02-17 21:55:00,36.0,28.2,30.08,SSW,201,0.0,0.0,73,0.00,,,0.00,WUHU216DAVISVP2,2013-02-18 05:55:00,
2013-02-17 22:00:00,35.5,28.4,30.08,SW,226,0.0,0.0,75,0.00,,,0.00,WUHU216DAVISVP2,2013-02-18 06:00:00,
2013-02-17 22:05:00,35.1,28.6,30.08,SW,234,0.3,2.0,77,0.00,,,0.00,WUHU216DAVISVP2,2013-02-18 06:05:00,
2013-02-17 22:10:00,34.7,28.6,30.08,SW,229,1.0,2.0,78,0.00,,,0.00,WUHU216DAVISVP2,2013-02-18 06:10:00,
2013-02-17 22:15:00,34.4,28.0,30.08,SW,227,0.1,2.0,77,0.00,,,0.00,WUHU216DAVISVP2,2013-02-18 06:15:00,
2013-02-17 22:20:00,34.6,27.8,30.08,SW,222,1.0,2.0,76,0.00,,,0.00,WUHU216DAVISVP2,2013-02-18 06:20:00,
2013-02-17 22:25:00,34.9,27.5,30.08,SW,224,0.2,2.0,74,0.00,,,0.00,WUHU216DAVISVP2,2013-02-18 06:25:00,
2013-02-17 22:30:00,34.9,27.2,30.08,SW,217,0.3,2.0,73,0.00,,,0.00,WUHU216DAVISVP2,2013-02-18 06:30:00,
2013-02-17 22:35:00,35.0,27.3,30.08,SW,229,0.1,2.0,73,0.00,,,0.00,WUHU216DAVISVP2,2013-02-18 06:35:00,
2013-02-17 22:40:00,34.7,27.3,30.07,SW,231,1.0,2.0,74,0.00,,,0.00,WUHU216DAVISVP2,2013-02-18 06:40:00,
2013-02-17 22:45:00,34.2,27.1,30.08,SSE,160,0.3,2.0,75,0.00,,,0.00,WUHU216DAVISVP2,2013-02-18 06:45:00,
2013-02-17 22:50:00,34.5,27.1,30.08,SSW,211,0.5,3.0,74,0.00,,,0.00,WUHU216DAVISVP2,2013-02-18 06:50:00,
2013-02-17 22:55:00,34.4,27.0,30.07,SSW,199,0.0,3.0,74,0.00,,,0.00,WUHU216DAVISVP2,2013-02-18 06:55:00,
2013-02-17 23:00:00,34.1,26.7,30.07,SSW,196,0.0,3.0,74,0.00,,,0.00,WUHU216DAVISVP2,2013-02-18 07:00:00,
2013-02-17 23:05:00,33.5,26.8,30.07,WSW,240,0.1,3.0,76,0.00,,,0.00,WUHU216DAVISVP2,2013-02-18 07:05:00,
2013-02-17 23:10:00,32.9,26.2,30.07,SSE,152,0.7,1.0,76,0.00,,,0.00,WUHU216DAVISVP2,2013-02-18 07:10:00,
2013-02-17 23:15:00,33.7,26.7,30.07,SE,143,0.0,1.0,75,0.00,,,0.00,WUHU216DAVISVP2,2013-02-18 07:15:00,
2013-02-17 23:20:00,34.0,26.6,30.07,SW,223,0.0,1.0,74,0.00,,,0.00,WUHU216DAVISVP2,2013-02-18 07:20:00,
2013-02-17 23:25:00,33.6,26.8,30.07,SW,229,1.1,2.0,76,0.00,,,0.00,WUHU216DAVISVP2,2013-02-18 07:25:00,
2013-02-17 23:30:00,33.6,26.8,30.07,SSW,213,0.0,2.0,76,0.00,,,0.00,WUHU216DAVISVP2,2013-02-18 07:30:00,
2013-02-17 23:35:00,33.5,26.8,30.07,SW,215,1.0,2.0,76,0.00,,,0.00,WUHU216DAVISVP2,2013-02-18 07:35:00,
2013-02-17 23:40:00,33.4,26.7,30.07,South,187,0.0,2.0,76,0.00,,,0.00,WUHU216DAVISVP2,2013-02-18 07:40:00,
2013-02-17 23:45:00,33.3,26.9,30.07,SSW,208,0.1,2.0,77,0.00,,,0.00,WUHU216DAVISVP2,2013-02-18 07:45:00,
2013-02-17 23:50:00,33.3,26.9,30.06,SW,231,1.0,2.0,77,0.00,,,0.00,WUHU216DAVISVP2,2013-02-18 07:50:00,
2013-02-17 23:55:00,33.2,26.8,30.07,SW,217,0.0,2.0,77,0.00,,,0.00,WUHU216DAVISVP2,2013-02-18 07:55:00,